STARLINK-5601, 55744

Orbit data source: Space-Track

STARLINK-5601, 55744 is a payload satellite owned by SpaceX/Seattle (US) in LEO that was launched on Fri, 03 Mar 2023 UTC via an FALCON 9 launch vehicle from the Air Force Western Test Range (AFWTR). Payload-class satellites include a variety of spacecraft equipped with specific instruments for various scientific and technological missions. These include communications satellites like Starlink; space stations such as the ISS; scientific satellites like the Hubble; Earth observation satellites from companies like Planet Labs, Umbra, and HawkEye 360; GPS; miniature CubeSats for education and research; and military/defense satellites.

Loading next visibility...
Identifier
55744, 2023-028D
Orbit
LEO
Country
Flag of USUS
Related business
Manufacturer
SpaceX/Seattle
Mission
Operational Commercial Communications
Bus & Motor
STARLINK, Unknown motor
Mass
305 kg wet, ~290 kg dry
Launch date (UTC)
2023-03-03 (3 years ago)
Launch vehicle
FALCON 9
Launch site
Air Force Western Test Range (AFWTR)
Object type
Payload
Rocket body
Debris
Shape & HBR
Box + 1 Pan, 10.1 m
Radar Cross Section
11.087 m², Large (>1 m²)

Expand to show TLE details & history
Last TLE update: 2 days ago

TLE from 2 days ago
0 STARLINK-5601
1 55744U 23028D   26171.21307985 -.00000852  00000-0 -63676-4 0  9991
2 55744  70.0005 346.1014 0002823 263.3378  96.7460 14.98323370181399
Epoch: 2026-06-20T05:06Z
TLE epoch observation values (Epoch: 2026-06-20T05:06:50.099Z)
Latitude
0.00002°
Longitude
0.96173°
Altitude
574.731 km
Speed
7.574 km/s
True Right ascension
23h 04m 24s
True Declination
0° 00' 00"
Sunlit
Object was in daylight at epoch
Visualization orbit readout
Latitude
Unknown
Longitude
Unknown
Altitude
Unknown
Speed
Unknown
Apparent Right ascension
Unknown
Apparent Declination
Unknown
Sunlit
N/A
Visualization observer readout
Local Sidereal Time
00:27:30
Azimuth
Unknown
Elevation
Unknown
Doppler factor
Unknown
Orbital elements
Apogee altitude
571.986 km
Perigee altitude
568.063 km
Semi-major axis
6,948.162 km
Eccentricity
0.00028
Inclination
70.0005°
RAAN
346.1014°
Arg. of periapsis
263.3378°
True anomaly
96.77812°
Mean anomaly
96.746°
Eccentric anomaly
96.76206°
Mean motion
3.74747 °/min
Orbital period
96.06 mins
BSTAR
-0.000063676
Loading maneuver chart data...
Computing Atmospheric mass density...
Loading historical data...
Loading historical data...
Loading historical data...
Loading historical data...
Loading historical data...
Loading historical data...
Loading historical data...

Documentation

Showing up to 5 results
|